Cloud_Cover
47 37 24 82 93 6 3 4 0 4 3 0 0 13 48 52 39 8 2 0 0 0 0 3 1 2 1 2 4 2 0 0 5 5 4 0 0 0 0 0 0 0 0
100 93 100 100 70 39 5 8 28 5 4 5 5 5 3 0 0 0 0 0 0 0 0 0 5 1 0 1 4 2 4 4 5 5 5 7 0 0 0 0 0 0 0
57 84 51 68 100 100 49 4 0 7 5 5 5 5 0 0 0 0 0 0 0 0 0 0 0 0 0 0 0 0 0 4 5 5 4 5 21 13 2 0 3 0 0
98 80 65 7 5 3 3 0 0 0 2 7 5 2 0 0 0 0 0 0 0 0 0 0 0 0 0 0 0 0 0 0 0 0 0 2 5 4 14 83 64 0 0
77 76 5 5 8 0 0 0 0 4 0 3 2 0 0 0 0 0 3 0 0 0 0 0 0 0 0 0 0 0 0 0 0 0 0 0 0 0 1 4 13 3 5
100 7 2 0 2 4 4 5 1 2 3 1 5 3 0 1 4 3 3 5 5 5 0 0 0 0 0 0 0 0 0 0 0 0 0 0 0 0 0 0 0 6 6
76 100 80 5 5 6 38 11 0 0 0 0 0 0 0 1 4 2 5 0 0 0 0 0 0 0 0 0 0 0 0 0 0 0 0 0 0 0 0 0 0 0 0
99 98 16 92 87 54 100 6 0 0 0 0 0 0 0 3 2 0 0 0 0 0 0 0 0 0 0 0 0 0 0 0 0 0 0 0 0 0 0 0 0 0 0
93 100 100 100 100 72 5 0 0 0 0 0 0 0 0 0 0 0 0 0 0 0 0 0 0 0 0 0 0 0 0 0 0 0 0 0 0 0 0 0 0 0 0
0 0 0 0 0 0 0 0 0 0 0 0 0 0 0 0 0 0 0 0 0 0 0 0 0 0 0 0 0 0 0 0 0 0 0 0 0 0 0 0 0 0 0
0 0 0 0 0 0 0 2 0 0 0 0 0 0 0 0 0 0 0 0 0 0 0 0 0 0 0 0 0 0 0 0 0 0 0 0 0 0 0 0 0 0 0
0 0 0 0 0 0 0 0 0 0 0 0 0 0 0 0 0 0 0 0 0 0 0 0 0 0 0 0 0 0 0 0 0 0 0 0 0 0 0 0 0 0 0
0 0 0 0 0 0 0 0 0 0 0 0 0 0 0 0 0 0 0 0 0 0 0 0 0 0 0 0 0 0 0 0 0 0 0 0 0 0 0 0 0 0 0
0 0 0 0 0 0 0 0 0 0 0 0 0 0 0 0 0 0 0 0 0 0 3 4 0 0 0 0 0 0 0 0 0 0 0 0 0 0 0 0 0 0 0
0 0 0 22 25 0 0 0 0 0 0 0 0 0 0 0 0 4 1 5 58 5 2 2 1 4 4 2 0 0 0 0 0 0 0 0 2 20 67 90 17 41 74
40 99 100 100 100 99 93 10 2 2 0 0 0 0 0 0 2 5 4 5 53 25 80 14 98 22 6 5 1 2 0 0 0 1 1 12 100 100 91 49 13 25 100
100 100 100 100 100 100 100 100 99 94 100 60 4 5 4 3 40 32 13 5 18 19 51 6 5 5 5 4 5 78 9 5 5 5 5 55 97 100 48 91 17 35 64
100 100 100 100 100 100 100 100 96 94 100 99 5 0 3 5 9 26 18 36 35 5 5 5 5 6 6 0 0 0 5 4 6 10 67 94 5 90 46 2 0 0 0
100 100 100 100 100 100 100 100 100 95 79 24 3 28 89 93 100 100 100 80 32 3 0 3 16 7 4 0 0 0 9 21 68 29 2 18 13 0 0 0 0 0 0
100 100 100 100 100 100 100 100 100 100 100 19 30 67 100 89 95 28 0 1 0 2 26 5 5 3 1 0 0 8 5 7 1 0 1 0 0 0 0 0 0 0 0
100 100 100 100 100 100 100 100 100 100 99 95 7 72 100 7 0 0 0 0 4 25 5 5 5 0 0 55 43 93 100 14 5 0 0 0 0 0 0 0 0 0 0
100 100 100 100 100 100 100 100 100 100 100 85 100 100 97 4 0 0 1 5 4 1 2 0 0 9 3 87 76 100 100 94 65 0 0 0 0 0 0 0 0 0 0
100 100 100 100 100 100 100 100 100 100 100 100 71 100 87 100 18 0 0 0 0 5 5 0 0 60 80 35 79 88 100 100 98 43 0 0 0 0 0 3 0 0 0
100 100 100 100 100 100 100 100 100 100 65 98 100 88 100 67 0 0 1 0 0 4 2 5 4 26 98 100 100 99 100 100 100 100 84 12 28 3 77 4 0 2 41
100 100 100 100 100 100 98 19 3 0 0 0 0 0 0 0 0 5 1 1 5 5 50 6 33 96 58 100 100 100 100 100 100 97 100 100 100 35 100 35 9 29 11
100 100 100 100 98 72 2 0 0 0 0 0 0 0 0 0 5 5 2 5 5 46 1 12 6 84 100 47 48 77 92 100 71 91 95 97 47 100 100 10 11 46 73